Time,TemperatureF,DewpointF,PressureIn,WindDirection,WindDirectionDegrees,WindSpeedMPH,WindSpeedGustMPH,Humidity,HourlyPrecipIn,Conditions,Clouds,dailyrainin,SoftwareType,DateUTC
2013-06-01 00:00:00,46.0,45.0,30.20,South,190,25.0,33.0,95,-99.99,,,-99.99,,2013-06-01 08:00:00,
2013-06-01 00:42:00,46.0,45.0,30.20,South,190,25.0,33.0,95,-99.99,,,-99.99,,2013-06-01 08:42:00,
2013-06-01 00:51:00,46.0,45.0,30.20,South,190,25.0,33.0,95,-99.99,,,-99.99,,2013-06-01 08:51:00,
2013-06-01 01:00:00,46.0,44.0,30.19,South,180,26.0,32.0,92,-99.99,,,-99.99,,2013-06-01 09:00:00,
2013-06-01 01:42:00,46.0,44.0,30.19,South,180,26.0,32.0,92,-99.99,,,-99.99,,2013-06-01 09:42:00,
2013-06-01 01:53:00,46.0,44.0,30.19,South,180,26.0,32.0,92,-99.99,,,-99.99,,2013-06-01 09:53:00,
2013-06-01 02:00:00,46.0,44.0,30.20,South,180,26.0,33.0,92,-99.99,,,-99.99,,2013-06-01 10:00:00,
2013-06-01 02:42:00,46.0,44.0,30.20,South,180,26.0,33.0,92,-99.99,,,-99.99,,2013-06-01 10:42:00,
2013-06-01 02:52:00,46.0,44.0,30.20,South,180,26.0,33.0,92,-99.99,,,-99.99,,2013-06-01 10:52:00,
2013-06-01 04:00:00,45.0,43.0,30.19,South,180,23.0,31.0,92,-99.99,,,-99.99,,2013-06-01 12:00:00,
2013-06-01 04:41:00,45.0,43.0,30.19,South,180,23.0,31.0,92,-99.99,,,-99.99,,2013-06-01 12:41:00,
2013-06-01 04:52:00,45.0,43.0,30.19,South,180,23.0,31.0,92,-99.99,,,-99.99,,2013-06-01 12:52:00,
2013-06-01 05:00:00,45.0,43.0,30.19,South,180,23.0,29.0,92,-99.99,,,-99.99,,2013-06-01 13:00:00,
2013-06-01 05:42:00,45.0,43.0,30.19,South,180,23.0,29.0,92,-99.99,,,-99.99,,2013-06-01 13:42:00,
2013-06-01 05:52:00,45.0,43.0,30.19,South,180,23.0,29.0,92,-99.99,,,-99.99,,2013-06-01 13:52:00,
2013-06-01 06:00:00,46.0,43.0,30.18,South,180,23.0,30.0,88,-99.99,,,-99.99,,2013-06-01 14:00:00,
2013-06-01 06:42:00,46.0,43.0,30.18,South,180,23.0,30.0,88,-99.99,,,-99.99,,2013-06-01 14:42:00,
2013-06-01 06:52:00,46.0,43.0,30.18,South,180,23.0,30.0,88,-99.99,,,-99.99,,2013-06-01 14:52:00,
2013-06-01 07:00:00,46.0,43.0,30.18,South,180,25.0,30.0,88,-99.99,,,-99.99,,2013-06-01 15:00:00,
2013-06-01 07:42:00,46.0,43.0,30.18,South,180,25.0,30.0,88,-99.99,,,-99.99,,2013-06-01 15:42:00,
2013-06-01 07:53:00,46.0,43.0,30.18,South,180,25.0,30.0,88,-99.99,,,-99.99,,2013-06-01 15:53:00,
2013-06-01 08:00:00,46.0,43.0,30.18,South,180,25.0,31.0,88,-99.99,,,-99.99,,2013-06-01 16:00:00,
2013-06-01 08:42:00,46.0,43.0,30.18,South,180,25.0,31.0,88,-99.99,,,-99.99,,2013-06-01 16:42:00,
2013-06-01 08:52:00,46.0,43.0,30.18,South,180,25.0,31.0,88,-99.99,,,-99.99,,2013-06-01 16:52:00,
2013-06-01 09:00:00,46.0,43.0,30.19,South,180,24.0,30.0,88,-99.99,,,-99.99,,2013-06-01 17:00:00,
2013-06-01 09:42:00,46.0,43.0,30.19,South,180,24.0,30.0,88,-99.99,,,-99.99,,2013-06-01 17:42:00,
2013-06-01 09:52:00,46.0,43.0,30.19,South,180,24.0,30.0,88,-99.99,,,-99.99,,2013-06-01 17:52:00,
2013-06-01 10:00:00,46.0,44.0,30.19,South,170,23.0,30.0,92,-99.99,,,-99.99,,2013-06-01 18:00:00,
2013-06-01 10:41:00,46.0,44.0,30.19,South,170,23.0,30.0,92,-99.99,,,-99.99,,2013-06-01 18:41:00,
2013-06-01 10:51:00,46.0,44.0,30.19,South,170,23.0,30.0,92,-99.99,,,-99.99,,2013-06-01 18:51:00,
2013-06-01 11:00:00,47.0,44.0,30.20,South,170,23.0,30.0,89,-99.99,,,-99.99,,2013-06-01 19:00:00,
2013-06-01 11:41:00,47.0,44.0,30.20,South,170,23.0,30.0,89,-99.99,,,-99.99,,2013-06-01 19:41:00,
2013-06-01 11:52:00,47.0,44.0,30.20,South,170,23.0,30.0,89,-99.99,,,-99.99,,2013-06-01 19:52:00,
2013-06-01 12:00:00,48.0,44.0,30.20,South,170,23.0,34.0,86,-99.99,,,-99.99,,2013-06-01 20:00:00,
2013-06-01 12:41:00,48.0,44.0,30.20,South,170,23.0,34.0,86,-99.99,,,-99.99,,2013-06-01 20:41:00,
2013-06-01 12:51:00,48.0,44.0,30.20,South,170,23.0,34.0,86,-99.99,,,-99.99,,2013-06-01 20:51:00,
2013-06-01 13:00:00,48.0,44.0,30.20,SSE,160,25.0,34.0,86,-99.99,,,-99.99,,2013-06-01 21:00:00,
2013-06-01 13:42:00,48.0,44.0,30.20,SSE,160,25.0,34.0,86,-99.99,,,-99.99,,2013-06-01 21:42:00,
2013-06-01 13:53:00,48.0,44.0,30.20,SSE,160,25.0,34.0,86,-99.99,,,-99.99,,2013-06-01 21:53:00,
2013-06-01 14:00:00,48.0,44.0,30.21,SSE,160,25.0,36.0,86,-99.99,,,-99.99,,2013-06-01 22:00:00,
2013-06-01 14:42:00,48.0,44.0,30.21,SSE,160,25.0,36.0,86,-99.99,,,-99.99,,2013-06-01 22:42:00,
2013-06-01 14:52:00,48.0,44.0,30.21,SSE,160,25.0,36.0,86,-99.99,,,-99.99,,2013-06-01 22:52:00,
2013-06-01 15:00:00,47.0,44.0,30.22,South,170,26.0,37.0,89,-99.99,,,-99.99,,2013-06-01 23:00:00,
2013-06-01 15:42:00,47.0,44.0,30.22,South,170,26.0,37.0,89,-99.99,,,-99.99,,2013-06-01 23:42:00,
2013-06-01 15:52:00,47.0,44.0,30.22,South,170,26.0,37.0,89,-99.99,,,-99.99,,2013-06-01 23:52:00,
2013-06-01 16:00:00,47.0,44.0,30.21,South,180,29.0,37.0,89,-99.99,,,-99.99,,2013-06-02 00:00:00,
2013-06-01 16:41:00,47.0,44.0,30.21,South,180,29.0,37.0,89,-99.99,,,-99.99,,2013-06-02 00:41:00,
2013-06-01 16:51:00,47.0,44.0,30.21,South,180,29.0,37.0,89,-99.99,,,-99.99,,2013-06-02 00:51:00,
2013-06-01 17:00:00,47.0,44.0,30.22,South,180,25.0,37.0,89,-99.99,,,-99.99,,2013-06-02 01:00:00,
2013-06-01 17:41:00,47.0,44.0,30.22,South,180,25.0,37.0,89,-99.99,,,-99.99,,2013-06-02 01:41:00,
2013-06-01 17:52:00,47.0,44.0,30.22,South,180,25.0,37.0,89,-99.99,,,-99.99,,2013-06-02 01:52:00,
2013-06-01 18:00:00,47.0,45.0,30.22,South,180,23.0,31.0,92,-99.99,,,-99.99,,2013-06-02 02:00:00,
2013-06-01 18:41:00,47.0,45.0,30.22,South,180,23.0,31.0,92,-99.99,,,-99.99,,2013-06-02 02:41:00,
2013-06-01 18:51:00,47.0,45.0,30.22,South,180,23.0,31.0,92,-99.99,,,-99.99,,2013-06-02 02:51:00,
2013-06-01 19:00:00,47.0,44.0,30.22,South,180,22.0,29.0,89,-99.99,,,-99.99,,2013-06-02 03:00:00,
2013-06-01 19:43:00,47.0,44.0,30.22,South,180,22.0,29.0,89,-99.99,,,-99.99,,2013-06-02 03:43:00,
2013-06-01 19:52:00,47.0,44.0,30.22,South,180,22.0,29.0,89,-99.99,,,-99.99,,2013-06-02 03:52:00,
2013-06-01 20:00:00,47.0,44.0,30.23,South,180,20.0,28.0,89,-99.99,,,-99.99,,2013-06-02 04:00:00,
2013-06-01 20:42:00,47.0,44.0,30.23,South,180,20.0,28.0,89,-99.99,,,-99.99,,2013-06-02 04:42:00,
2013-06-01 20:52:00,47.0,44.0,30.23,South,180,20.0,28.0,89,-99.99,,,-99.99,,2013-06-02 04:52:00,
2013-06-01 21:00:00,47.0,44.0,30.25,South,170,16.0,25.0,89,-99.99,,,-99.99,,2013-06-02 05:00:00,
2013-06-01 21:42:00,47.0,44.0,30.25,South,170,16.0,25.0,89,-99.99,,,-99.99,,2013-06-02 05:42:00,
2013-06-01 21:51:00,47.0,44.0,30.25,South,170,16.0,25.0,89,-99.99,,,-99.99,,2013-06-02 05:51:00,
2013-06-01 22:00:00,47.0,44.0,30.26,South,170,16.0,24.0,89,-99.99,,,-99.99,,2013-06-02 06:00:00,
2013-06-01 22:41:00,47.0,44.0,30.26,South,170,16.0,24.0,89,-99.99,,,-99.99,,2013-06-02 06:41:00,
2013-06-01 22:51:00,47.0,44.0,30.26,South,170,16.0,24.0,89,-99.99,,,-99.99,,2013-06-02 06:51:00,
2013-06-01 23:00:00,47.0,44.0,30.26,South,170,20.0,25.0,89,-99.99,,,-99.99,,2013-06-02 07:00:00,
2013-06-01 23:41:00,47.0,44.0,30.26,South,170,20.0,25.0,89,-99.99,,,-99.99,,2013-06-02 07:41:00,
2013-06-01 23:52:00,47.0,44.0,30.26,South,170,20.0,25.0,89,-99.99,,,-99.99,,2013-06-02 07:52:00,